"Pseudo-MPEC" for A10YkiX

Created 2023 Nov 21 15:22:04 UT using Find_Orb

Click here for an explanation of pseudo-MPECs

 
 Astrometry: 
     A10YkiX* C2023 11 20Gx9%!MWhXPt%1kNg)ME/_P-NLI6fp4Zu::Ppga^y72$#Rj`YiI?0W68
     A10YkiX  C2023 11 20GEAstrometryY]2OKF$?:T5'MS`_Vc7$qC'ic8jbq'tGRtKq4Z,oW68
     A10YkiX  C2023 11 20v4P)t597Lm;w7CgT[W,_7-ke3cmIoC]yW4@I;3d8JaYXvku)*fjuW68
     A10YkiX  C2023 11 20Q#8+pUmyTt1C:Z^'xP,:0d6U_s_%ZWAMbli=_BLYSoMgS/@];ZGYW68
     A10YkiX KC2023 11 20Jsxaxv/]IrOlii4oHhdP/q_OUT/g4%`2@9NpH1st;e^3,Bx6+IO[474
     A10YkiX KC2023 11 20$)D[qX:1jZJr+M*$GyDe]DSC@+4KTc`3m_n=b)bB.Z'[,\qPHTNU474
     A10YkiX KC2023 11 20RH`fMnO4'vsOnj7xR4`g;A_!#W+%eYZ=[t]/igCp=pF2`7dmKJ4g474
     A10YkiX KC2023 11 20kshHPtNp-bgi]KxLluB/kBA+Z_R_/fLT`o#jC+:*m(MP-%yy.Eu*474
     A10YkiX 0B2023 11 20+/C]oSJAaredacted;djTgIorqQyG^%$7clickYWy%R)0b'mWZqRM49
     A10YkiX 0B2023 11 20u[w:6d=_64j66N;netKdS#H=?OePc\]84R.RJmi8]%(etv*HGnV%M49
     A10YkiX 0B2023 11 20psxy^)bAf!9T-G,1nu$+T,p()+*Hacs4brsk5n1j-?Q.KcGg-UMWM49
     A10YkiX |C2023 11 21^V1i;Y*$,@%ken_P^Fo5.AR0BsqwGN5W_Xrsbw%'q^r]R23j2)ZA807
     A10YkiX |C2023 11 21J2here+l`#Ca+YE7for7Thw5_\avhM03:9m5=Y@/?w,]ey(WjFe2807
     A10YkiX |C2023 11 21CqYaHiX5)q(h;^w[6);sI:!Z*!EDEhX`6ZOHoXsQPal58'%uCxD7807
     A10YkiX KC2023 11 21.13942 00 17 21.706-21 39 38.27   ~BL87 20.4 GVNEOCPU52
     A10YkiX KC2023 11 21.14299 00 17 20.378-21 38 37.75   ~BL87       VNEOCPU52
     A10YkiX KC2023 11 21S$vTIlRH40c$D8L9KED!,7jDI@;GSTw).uaI0K24p$;c)`._GE)E474
     A10YkiX KC2023 11 21=S?YT^f/[I=[DX^.*JwT)l=fRKKSJ/yhb!VA%kjC'hUeQ9jNmM@1474
     A10YkiX KC2023 11 219L6?ZaNY)6Q*,.K2S;/Z)dZ$jbKq\60cMOCh#Vq9-!o2IAA]$_]9474
     A10YkiX KC2023 11 21c'Uixl%cUexplanation,8RN.E/oc?uB!p%V=ssxNbQtB:O(R[WH474

Station data:
(474) Mount John Observatory, Lake Tekapo  (S43.987385 E170.464960)  New
   Zealand.  Observers A. C. Gilmore, P. M. Kilmartin. Measurer P. M.
   Kilmartin. 1.0-m f/7.7 reflector + CCD.
(807) Cerro Tololo Observatory, La Serena  (S30.169133 W70.805900)  Chile.
   Observer R. Holmes. 0.61-m f/6.5 astrograph + CCD.
(M49) IAS Remote Observatory, Hakos  (S23.236549 E16.361720)  Namibia.
   Observers D. Husar, M. Junius. Measurer D. Husar. 0.25-m f/4.6 reflector +
   CCD.
(U52) Shasta Valley Observatory, Grenada  (N41.579164 W122.548890)
   US/California.  Observer J. E. Rogers. Measurers J. E. Rogers, D. Parrott.
   0.30-m Helin Telescope + CCD.
(W68) ATLAS Chile, Rio Hurtado  (S30.471010 W70.764980)  Chile.  Observers L.
   Denneau, R. Siverd, J. Tonry, H. Weiland. Measurers L. Denneau, N.
   Erasmus, A. Fitzsimmons, A. Lawrence, J. Robinson, R. Siverd, J. Tonry, H.
   Weiland. 0.5-m reflector + CCD.

Orbital elements:  A10YkiX
   Perihelion 2023 Aug 12.91382 +/- 0.0972 TT = 21:55:54 (JD 2460169.41382)
Epoch 2023 Nov 21.0 TT = JDT 2460269.5   Earth MOID: 0.0646   Me: 0.0952
M 132.01739666 +/- 0.24             (J2000 ecliptic)             AutoNEOCP
n   1.31903728 +/- 0.00152          Peri.  202.17180 +/- 0.14
a   0.82343881 +/- 0.000633         Node    56.30562 +/- 0.029
e   0.3307230 +/- 0.000488          Incl.   34.42859 +/- 0.16
P   0.75/272.92d           H 21.63  G  0.15   U  8.4
q 0.55110863 +/- 0.000642    Q 1.09576898 +/- 0.000854
From 20 observations 2023 Nov. 20-21 (31.0 hr); mean residual 0".45
Residuals in arcseconds: 
231120 W68  .21-  1.5-    231120 474  .08+  .08+    231121 U52  .75-  .18+    
231120 W68  .21-  .21-    231120 M49  .04-  .11+    231121 U52  1.4+  .05-    
231120 W68  .42+  .54+    231120 M49  .20+  .39-    231121 474  .16-  .16-    
231120 W68  .05-  1.2+    231120 M49  .38-  .60-    231121 474  .02+  .01-    
231120 474  .18+  .26+    231121 807  .23-  .20+    231121 474  .10-  .06+    
231120 474  .03-  .25+    231121 807  .31-  .17+    231121 474  .08-  .06-    
231120 474  .16+  .07+    231121 807  .03+  .05+    

Ephemerides (geocentric):
Date (UTC) HH   RA             Dec           delta  r     elong  mag " sig PA
---- --------  ------------   ------------  ------ ------ -----  --- --------
2023 11 21 15  00 14 17.625   -19 22 44.92  .11890 1.0437 115.0 19.2 .057 100
2023 11 21 16  00 14 02.517   -19 11 18.39  .11909 1.0438 115.0 19.2 .061 100
2023 11 21 17  00 13 47.500   -18 59 53.90  .11928 1.0440 115.0 19.2 .065  99
2023 11 21 18  00 13 32.573   -18 48 31.44  .11947 1.0441 115.0 19.2 .069  99
2023 11 21 19  00 13 17.734   -18 37 11.03  .11966 1.0442 115.1 19.2 .073  99
2023 11 21 20  00 13 02.984   -18 25 52.68  .11986 1.0443 115.1 19.2 .076  98
2023 11 21 21  00 12 48.321   -18 14 36.39  .12005 1.0444 115.1 19.2 .080  98
2023 11 21 22  00 12 33.744   -18 03 22.17  .12025 1.0446 115.1 19.2 .084  98
2023 11 21 23  00 12 19.254   -17 52 10.03  .12045 1.0447 115.1 19.2 .087  97
2023 11 22 00  00 12 04.850   -17 40 59.97  .12065 1.0448 115.1 19.2 .091  97
2023 11 22 01  00 11 50.530   -17 29 52.00  .12085 1.0449 115.1 19.2 .095  97
2023 11 22 02  00 11 36.294   -17 18 46.12  .12105 1.0450 115.2 19.3 .098  96
2023 11 22 03  00 11 22.142   -17 07 42.34  .12125 1.0452 115.2 19.3 .101  96
2023 11 22 04  00 11 08.073   -16 56 40.68  .12146 1.0453 115.2 19.3 .105  96
2023 11 22 05  00 10 54.087   -16 45 41.12  .12167 1.0454 115.2 19.3 .108  95
2023 11 22 06  00 10 40.182   -16 34 43.68  .12187 1.0455 115.2 19.3 .111  95
2023 11 22 07  00 10 26.359   -16 23 48.36  .12208 1.0456 115.2 19.3 .115  94
2023 11 22 08  00 10 12.616   -16 12 55.16  .12229 1.0458 115.2 19.3 .118  94
2023 11 22 09  00 09 58.952   -16 02 04.10  .12250 1.0459 115.2 19.3 .121  94
2023 11 22 10  00 09 45.369   -15 51 15.17  .12272 1.0460 115.2 19.3 .124  93
2023 11 22 11  00 09 31.864   -15 40 28.37  .12293 1.0461 115.3 19.3 .127  93
2023 11 22 12  00 09 18.437   -15 29 43.72  .12315 1.0462 115.3 19.3 .130  92
2023 11 22 13  00 09 05.088   -15 19 01.22  .12336 1.0463 115.3 19.3 .133  92
2023 11 22 14  00 08 51.816   -15 08 20.86  .12358 1.0465 115.3 19.3 .136  92
2023 11 22 15  00 08 38.621   -14 57 42.65  .12380 1.0466 115.3 19.3 .139  91
2023 11 22 16  00 08 25.502   -14 47 06.59  .12402 1.0467 115.3 19.3 .142  91
2023 11 22 17  00 08 12.458   -14 36 32.70  .12424 1.0468 115.3 19.3 .145  90
2023 11 22 18  00 07 59.488   -14 26 00.96  .12447 1.0469 115.3 19.3 .148  90
2023 11 22 19  00 07 46.594   -14 15 31.38  .12469 1.0471 115.3 19.3 .150  90
2023 11 22 20  00 07 33.773   -14 05 03.96  .12492 1.0472 115.3 19.3 .153  89
2023 11 22 21  00 07 21.025   -13 54 38.71  .12514 1.0473 115.3 19.3 .156  89
2023 11 22 22  00 07 08.350   -13 44 15.62  .12537 1.0474 115.3 19.3 .159  88
2023 11 22 23  00 06 55.747   -13 33 54.70  .12560 1.0475 115.3 19.3 .161  88
2023 11 23 00  00 06 43.216   -13 23 35.94  .12583 1.0476 115.3 19.3 .164  88
2023 11 23 01  00 06 30.757   -13 13 19.36  .12606 1.0478 115.3 19.3 .167  87
2023 11 23 02  00 06 18.368   -13 03 04.94  .12630 1.0479 115.3 19.3 .169  87
2023 11 23 03  00 06 06.049   -12 52 52.69  .12653 1.0480 115.3 19.3 .172  86
2023 11 23 04  00 05 53.799   -12 42 42.62  .12677 1.0481 115.3 19.3 .174  86
2023 11 23 05  00 05 41.619   -12 32 34.71  .12700 1.0482 115.3 19.4 .177  86
2023 11 23 06  00 05 29.508   -12 22 28.97  .12724 1.0483 115.3 19.4 .180  85
2023 11 23 07  00 05 17.465   -12 12 25.41  .12748 1.0484 115.3 19.4 .182  85
2023 11 23 08  00 05 05.490   -12 02 24.01  .12772 1.0486 115.3 19.4 .185  84
2023 11 23 09  00 04 53.582   -11 52 24.78  .12796 1.0487 115.3 19.4 .187  84
2023 11 23 10  00 04 41.741   -11 42 27.72  .12820 1.0488 115.3 19.4 .189  84
2023 11 23 11  00 04 29.966   -11 32 32.83  .12845 1.0489 115.3 19.4 .192  83
2023 11 23 12  00 04 18.257   -11 22 40.11  .12869 1.0490 115.3 19.4 .194  83
2023 11 23 13  00 04 06.613   -11 12 49.55  .12894 1.0491 115.3 19.4 .197  82
2023 11 23 14  00 03 55.035   -11 03 01.15  .12918 1.0493 115.3 19.4 .199  82